Terminal Aerodrome Forecast
Issued by NWS

Home | Current Version | Previous Version | Text Only | Print | Product List | Glossary Off
Versions: 1 2 3 4 5 6 7 8 9 10 11 12 13 14 15 16 17 18 19 20 21 22 23 24 25 26 27 28 29 30 31 32 33 34 35 36

221
FTUS43 KABR 101132
TAFMBG
TAF
KMBG 101132Z 1012/1112 08009KT P6SM OVC150
     FM101300 10010KT 6SM -SN BKN015
     FM101700 11013G20KT 2SM -SHSN BLSN OVC015
     FM102100 11014KT P6SM OVC015
     FM110300 09015KT 2SM -SN OVC008
     FM110900 05009KT P6SM BKN008=

USA.gov is the U.S. government's official web portal to all federal, state and local government web resources and services.